DECAYED

NOAA 16 DEB, 42373 (Decayed)

Orbit data source: Space-Track

NOAA 16 DEB, 42373 was space debris in SSO originally from a launch on Thu, 21 Sep 2000 UTC launched from the Air Force Western Test Range (AFWTR). Debris objects in space refer to the collection of defunct objects orbiting the Earth. Examples of debris include non-operational satellites, rocket bodies, and fragments generated from explosions, collisions, or faulty payload assembly.

Not visible in the next 10 days
Identifier
42373, 2000-055RR
Orbit
Decayed
Country
Flag of USUS
Related business
Manufacturer
Unknown
Mission
Decayed spacecraft
Bus & Motor
Unknown
Mass
Unknown
Launch date (UTC)
2000-09-21 (26 years ago)
Launch vehicle
Unknown
Launch site
Air Force Western Test Range (AFWTR)
Object type
Payload
Rocket body
Debris
Shape & HBR
Unknown shape, 0.1 m
Radar Cross Section
Small (<0.1 m²)

Expand to show TLE details & history
Last TLE update: 1 year ago

TLE from 1 year ago
0 NOAA 16 DEB
1 42373U 00055RR  25009.52153250  .00085150  00000-0  90191-2 0  9999
2 42373  98.9748 298.2082 0039629   6.0111 354.1570 14.88120552470681
Epoch: 2025-01-09T12:31Z
TLE epoch observation values (Epoch: 2025-01-09T12:31:00.408Z)
Latitude
0.00006°
Longitude
1.1577°
Altitude
579.277 km
Speed
7.586 km/s
True Right ascension
19h 52m 49s
True Declination
0° 00' 00"
Sunlit
Object was in daylight at epoch
Visualization orbit readout
Latitude
Unknown
Longitude
Unknown
Altitude
Unknown
Speed
Unknown
Apparent Right ascension
Unknown
Apparent Declination
Unknown
Sunlit
N/A
Visualization observer readout
Local Sidereal Time
06:15:07
Azimuth
Unknown
Elevation
Unknown
Doppler factor
Unknown
Orbital elements
Apogee altitude
628.547 km
Perigee altitude
573.232 km
Semi-major axis
6,979.027 km
Eccentricity
0.00396
Inclination
98.9748°
RAAN
298.2082°
Arg. of periapsis
6.0111°
True anomaly
354.11054°
Mean anomaly
354.157°
Eccentric anomaly
354.13379°
Mean motion
3.72264 °/min
Orbital period
96.71 mins
BSTAR
0.0090191
Loading maneuver chart data...
Computing Atmospheric mass density...
Loading historical data...
Loading historical data...
Loading historical data...
Loading historical data...
Loading historical data...
Loading historical data...
Loading historical data...

Documentation

Showing up to 5 results
|